Time,TemperatureF,DewpointF,PressureIn,WindDirection,WindDirectionDegrees,WindSpeedMPH,WindSpeedGustMPH,Humidity,HourlyPrecipIn,Conditions,Clouds,dailyrainin,SoftwareType,DateUTC
2013-01-20 00:01:00,39.7,30.0,29.60,SSW,202,0.0,0.0,69,0.00,,,0.00,WXlink_for_OpenVMS,2013-01-20 05:01:00,
2013-01-20 00:06:00,39.9,31.0,29.60,South,189,0.0,0.0,69,0.00,,,0.00,WXlink_for_OpenVMS,2013-01-20 05:06:00,
2013-01-20 00:10:00,39.9,31.0,29.60,SSW,204,0.0,0.0,69,0.00,,,0.00,WXlink_for_OpenVMS,2013-01-20 05:10:00,
2013-01-20 00:16:00,39.9,31.0,29.58,SSW,208,0.0,0.0,69,0.00,,,0.00,WXlink_for_OpenVMS,2013-01-20 05:16:00,
2013-01-20 00:20:00,40.1,31.0,29.58,South,189,0.0,0.0,69,0.00,,,0.00,WXlink_for_OpenVMS,2013-01-20 05:20:00,
2013-01-20 00:26:00,40.3,31.0,29.58,SW,224,0.0,0.0,69,0.00,,,0.00,WXlink_for_OpenVMS,2013-01-20 05:26:00,
2013-01-20 00:36:00,40.3,31.0,29.58,SW,225,0.0,0.0,69,0.00,,,0.00,WXlink_for_OpenVMS,2013-01-20 05:36:00,
2013-01-20 00:41:00,40.1,31.0,29.58,South,178,0.0,0.0,69,0.00,,,0.00,WXlink_for_OpenVMS,2013-01-20 05:41:00,
2013-01-20 00:46:00,40.1,31.0,29.58,SSE,165,0.0,0.0,69,0.00,,,0.00,WXlink_for_OpenVMS,2013-01-20 05:46:00,
2013-01-20 00:51:00,40.1,31.0,29.58,SSE,159,0.0,0.0,69,0.00,,,0.00,WXlink_for_OpenVMS,2013-01-20 05:51:00,
2013-01-20 00:56:00,40.1,31.0,29.58,South,171,0.0,0.0,70,0.00,,,0.00,WXlink_for_OpenVMS,2013-01-20 05:56:00,
2013-01-20 01:00:00,40.1,31.0,29.58,South,174,0.0,0.0,70,0.00,,,0.00,WXlink_for_OpenVMS,2013-01-20 06:00:00,
2013-01-20 01:06:00,40.3,31.0,29.58,South,172,0.0,0.0,70,0.00,,,0.00,WXlink_for_OpenVMS,2013-01-20 06:06:00,
2013-01-20 01:10:00,40.3,31.0,29.58,South,170,0.0,4.9,70,0.00,,,0.00,WXlink_for_OpenVMS,2013-01-20 06:10:00,
2013-01-20 01:15:00,40.3,31.0,29.58,SSE,165,0.0,0.0,70,0.00,,,0.00,WXlink_for_OpenVMS,2013-01-20 06:15:00,
2013-01-20 01:21:00,40.3,31.0,29.58,ENE,75,0.0,0.0,70,0.00,,,0.00,WXlink_for_OpenVMS,2013-01-20 06:21:00,
2013-01-20 01:26:00,40.1,31.0,29.58,ESE,108,0.0,0.0,70,0.00,,,0.00,WXlink_for_OpenVMS,2013-01-20 06:26:00,
2013-01-20 01:36:00,40.3,31.0,29.55,SSW,203,0.0,0.0,70,0.00,,,0.00,WXlink_for_OpenVMS,2013-01-20 06:36:00,
2013-01-20 01:40:00,40.3,31.0,29.55,SSW,207,0.0,0.0,70,0.00,,,0.00,WXlink_for_OpenVMS,2013-01-20 06:40:00,
2013-01-20 01:46:00,40.3,31.0,29.55,SW,223,0.0,0.0,70,0.00,,,0.00,WXlink_for_OpenVMS,2013-01-20 06:46:00,
2013-01-20 01:51:00,40.3,31.0,29.55,SSW,211,0.0,0.0,70,0.00,,,0.00,WXlink_for_OpenVMS,2013-01-20 06:51:00,
2013-01-20 02:01:00,40.5,31.0,29.55,South,179,4.9,0.0,69,0.00,,,0.00,WXlink_for_OpenVMS,2013-01-20 07:01:00,
2013-01-20 02:06:00,40.6,31.0,29.55,SW,221,0.0,0.0,69,0.00,,,0.00,WXlink_for_OpenVMS,2013-01-20 07:06:00,
2013-01-20 02:10:00,40.5,31.0,29.55,SW,221,0.0,0.0,69,0.00,,,0.00,WXlink_for_OpenVMS,2013-01-20 07:10:00,
2013-01-20 02:15:00,40.3,31.0,29.55,South,175,0.0,0.0,69,0.00,,,0.00,WXlink_for_OpenVMS,2013-01-20 07:15:00,
2013-01-20 02:20:00,40.3,31.0,29.55,South,175,0.0,0.0,69,0.00,,,0.00,WXlink_for_OpenVMS,2013-01-20 07:20:00,
2013-01-20 02:26:00,39.9,31.0,29.55,SW,225,0.0,0.0,69,0.00,,,0.00,WXlink_for_OpenVMS,2013-01-20 07:26:00,
2013-01-20 02:31:00,39.9,31.0,29.55,SW,226,0.0,0.0,70,0.00,,,0.00,WXlink_for_OpenVMS,2013-01-20 07:31:00,
2013-01-20 02:36:00,39.7,31.0,29.55,South,171,0.0,0.0,70,0.00,,,0.00,WXlink_for_OpenVMS,2013-01-20 07:36:00,
2013-01-20 02:46:00,39.7,31.0,29.52,South,191,0.0,0.0,70,0.00,,,0.00,WXlink_for_OpenVMS,2013-01-20 07:46:00,
2013-01-20 02:51:00,39.7,31.0,29.52,SSW,204,0.0,0.0,70,0.00,,,0.00,WXlink_for_OpenVMS,2013-01-20 07:51:00,
2013-01-20 02:56:00,39.7,31.0,29.52,SSW,192,0.0,0.0,70,0.00,,,0.00,WXlink_for_OpenVMS,2013-01-20 07:56:00,
2013-01-20 03:00:00,39.7,31.0,29.52,SSW,195,0.0,0.0,70,0.00,,,0.00,WXlink_for_OpenVMS,2013-01-20 08:00:00,
2013-01-20 03:06:00,39.7,31.0,29.52,South,169,0.0,0.0,70,0.00,,,0.00,WXlink_for_OpenVMS,2013-01-20 08:06:00,
2013-01-20 03:11:00,39.6,31.0,29.52,SSE,161,0.0,0.0,70,0.00,,,0.00,WXlink_for_OpenVMS,2013-01-20 08:11:00,
2013-01-20 03:16:00,39.6,31.0,29.49,SSE,161,0.0,0.0,70,0.00,,,0.00,WXlink_for_OpenVMS,2013-01-20 08:16:00,
2013-01-20 03:21:00,39.6,31.0,29.49,SSW,203,0.0,0.0,70,0.00,,,0.00,WXlink_for_OpenVMS,2013-01-20 08:21:00,
2013-01-20 03:25:00,39.6,31.0,29.49,South,186,0.0,0.0,70,0.00,,,0.00,WXlink_for_OpenVMS,2013-01-20 08:25:00,
2013-01-20 03:31:00,39.6,31.0,29.49,South,181,0.0,0.0,70,0.00,,,0.00,WXlink_for_OpenVMS,2013-01-20 08:31:00,
2013-01-20 03:35:00,39.4,30.0,29.49,East,94,0.0,0.0,70,0.00,,,0.00,WXlink_for_OpenVMS,2013-01-20 08:35:00,
2013-01-20 03:41:00,39.4,30.0,29.49,SSW,204,0.0,0.0,70,0.00,,,0.00,WXlink_for_OpenVMS,2013-01-20 08:41:00,
2013-01-20 03:51:00,39.2,31.0,29.49,SSE,156,0.0,0.0,71,0.00,,,0.00,WXlink_for_OpenVMS,2013-01-20 08:51:00,
2013-01-20 03:56:00,39.2,30.0,29.49,SSW,192,0.0,0.0,70,0.00,,,0.00,WXlink_for_OpenVMS,2013-01-20 08:56:00,
2013-01-20 04:01:00,39.2,31.0,29.49,SSE,168,0.0,0.0,71,0.00,,,0.00,WXlink_for_OpenVMS,2013-01-20 09:01:00,
2013-01-20 04:06:00,39.2,31.0,29.49,South,181,0.0,0.0,71,0.00,,,0.00,WXlink_for_OpenVMS,2013-01-20 09:06:00,
2013-01-20 04:16:00,39.2,31.0,29.46,SSE,158,0.0,3.6,71,0.00,,,0.00,WXlink_for_OpenVMS,2013-01-20 09:16:00,
2013-01-20 04:21:00,39.2,31.0,29.46,SE,144,0.0,0.0,71,0.00,,,0.00,WXlink_for_OpenVMS,2013-01-20 09:21:00,
2013-01-20 04:26:00,39.2,31.0,29.46,South,187,0.0,0.0,71,0.00,,,0.00,WXlink_for_OpenVMS,2013-01-20 09:26:00,
2013-01-20 04:31:00,39.2,31.0,29.46,South,177,0.0,0.0,71,0.00,,,0.00,WXlink_for_OpenVMS,2013-01-20 09:31:00,
2013-01-20 04:36:00,39.2,31.0,29.46,SW,233,0.0,0.0,71,0.00,,,0.00,WXlink_for_OpenVMS,2013-01-20 09:36:00,
2013-01-20 04:41:00,39.2,31.0,29.46,SW,224,0.0,0.0,72,0.00,,,0.00,WXlink_for_OpenVMS,2013-01-20 09:41:00,
2013-01-20 04:46:00,39.2,31.0,29.46,SW,230,0.0,0.0,72,0.00,,,0.00,WXlink_for_OpenVMS,2013-01-20 09:46:00,
2013-01-20 04:56:00,39.2,31.0,29.46,SSW,209,0.0,0.0,72,0.00,,,0.00,WXlink_for_OpenVMS,2013-01-20 09:56:00,
2013-01-20 05:01:00,39.2,31.0,29.46,SSW,196,0.0,0.0,72,0.00,,,0.00,WXlink_for_OpenVMS,2013-01-20 10:01:00,
2013-01-20 05:06:00,39.2,31.0,29.46,SSE,152,0.0,0.0,72,0.00,,,0.00,WXlink_for_OpenVMS,2013-01-20 10:06:00,
2013-01-20 05:10:00,39.2,31.0,29.46,South,187,2.2,0.0,72,0.00,,,0.00,WXlink_for_OpenVMS,2013-01-20 10:10:00,
2013-01-20 05:16:00,39.0,31.0,29.43,SSW,200,0.0,0.0,72,0.00,,,0.00,WXlink_for_OpenVMS,2013-01-20 10:16:00,
2013-01-20 05:21:00,39.2,31.0,29.43,South,177,0.0,0.0,73,0.00,,,0.00,WXlink_for_OpenVMS,2013-01-20 10:21:00,
2013-01-20 05:25:00,39.2,31.0,29.43,SSW,195,0.0,0.0,73,0.00,,,0.00,WXlink_for_OpenVMS,2013-01-20 10:25:00,
2013-01-20 05:31:00,39.0,31.0,29.43,SSW,202,0.0,0.0,73,0.00,,,0.00,WXlink_for_OpenVMS,2013-01-20 10:31:00,
2013-01-20 05:35:00,39.0,31.0,29.43,SSW,192,0.0,0.0,73,0.00,,,0.00,WXlink_for_OpenVMS,2013-01-20 10:35:00,
2013-01-20 05:41:00,38.8,31.0,29.43,South,174,0.0,0.0,73,0.00,,,0.00,WXlink_for_OpenVMS,2013-01-20 10:41:00,
2013-01-20 05:46:00,38.8,31.0,29.40,SSW,192,0.0,0.0,73,0.00,,,0.00,WXlink_for_OpenVMS,2013-01-20 10:46:00,
2013-01-20 05:56:00,38.8,31.0,29.40,SW,216,0.0,0.0,73,0.00,,,0.00,WXlink_for_OpenVMS,2013-01-20 10:56:00,
2013-01-20 06:01:00,39.0,31.0,29.40,South,180,0.0,0.0,73,0.00,,,0.00,WXlink_for_OpenVMS,2013-01-20 11:01:00,
2013-01-20 06:05:00,38.8,31.0,29.40,South,180,0.0,0.0,73,0.00,,,0.00,WXlink_for_OpenVMS,2013-01-20 11:05:00,
2013-01-20 06:10:00,39.0,31.0,29.40,ENE,77,0.0,0.0,73,0.00,,,0.00,WXlink_for_OpenVMS,2013-01-20 11:10:00,
2013-01-20 06:16:00,39.0,31.0,29.40,SSW,196,0.0,3.6,73,0.00,,,0.00,WXlink_for_OpenVMS,2013-01-20 11:16:00,
2013-01-20 06:26:00,39.0,31.0,29.40,SE,140,0.0,4.0,73,0.00,,,0.00,WXlink_for_OpenVMS,2013-01-20 11:26:00,
2013-01-20 06:31:00,39.0,31.0,29.40,SSW,209,0.0,0.0,73,0.00,,,0.00,WXlink_for_OpenVMS,2013-01-20 11:31:00,
2013-01-20 06:36:00,39.0,31.0,29.40,South,173,0.0,0.0,73,0.00,,,0.00,WXlink_for_OpenVMS,2013-01-20 11:36:00,
2013-01-20 06:40:00,39.2,31.0,29.40,SW,224,0.0,0.0,73,0.00,,,0.00,WXlink_for_OpenVMS,2013-01-20 11:40:00,
2013-01-20 06:46:00,39.2,31.0,29.37,SSE,160,0.0,0.0,73,0.00,,,0.00,WXlink_for_OpenVMS,2013-01-20 11:46:00,
2013-01-20 06:51:00,39.2,31.0,29.37,SSW,213,0.0,0.0,73,0.00,,,0.00,WXlink_for_OpenVMS,2013-01-20 11:51:00,
2013-01-20 06:56:00,39.0,31.0,29.37,SSW,210,0.0,0.0,72,0.00,,,0.00,WXlink_for_OpenVMS,2013-01-20 11:56:00,
2013-01-20 07:06:00,39.2,31.0,29.40,SW,234,0.0,0.0,72,0.00,,,0.00,WXlink_for_OpenVMS,2013-01-20 12:06:00,
2013-01-20 07:10:00,39.0,31.0,29.40,South,177,0.0,0.0,72,0.00,,,0.00,WXlink_for_OpenVMS,2013-01-20 12:10:00,
2013-01-20 07:16:00,39.0,31.0,29.37,SSW,206,0.0,0.0,72,0.00,,,0.00,WXlink_for_OpenVMS,2013-01-20 12:16:00,
2013-01-20 07:21:00,39.0,31.0,29.37,SSW,205,0.0,2.7,72,0.00,,,0.00,WXlink_for_OpenVMS,2013-01-20 12:21:00,
2013-01-20 07:26:00,39.0,31.0,29.37,South,187,0.0,3.1,72,0.00,,,0.00,WXlink_for_OpenVMS,2013-01-20 12:26:00,
2013-01-20 07:31:00,39.0,31.0,29.37,WSW,239,0.0,0.0,72,0.00,,,0.00,WXlink_for_OpenVMS,2013-01-20 12:31:00,
2013-01-20 07:36:00,39.0,31.0,29.37,SSE,163,0.0,0.0,72,0.00,,,0.00,WXlink_for_OpenVMS,2013-01-20 12:36:00,
2013-01-20 07:41:00,39.2,31.0,29.37,SSW,205,0.0,0.0,72,0.00,,,0.00,WXlink_for_OpenVMS,2013-01-20 12:41:00,
2013-01-20 07:46:00,39.2,31.0,29.37,SW,227,0.0,2.7,72,0.00,,,0.00,WXlink_for_OpenVMS,2013-01-20 12:46:00,
2013-01-20 07:51:00,39.4,31.0,29.37,South,189,0.0,0.0,71,0.00,,,0.00,WXlink_for_OpenVMS,2013-01-20 12:51:00,
2013-01-20 08:01:00,39.6,31.0,29.37,South,190,0.0,0.0,71,0.00,,,0.00,WXlink_for_OpenVMS,2013-01-20 13:01:00,
2013-01-20 08:06:00,39.6,31.0,29.37,SSE,151,0.0,0.0,70,0.00,,,0.00,WXlink_for_OpenVMS,2013-01-20 13:06:00,
2013-01-20 08:10:00,39.7,31.0,29.37,SSW,199,0.0,0.0,70,0.00,,,0.00,WXlink_for_OpenVMS,2013-01-20 13:10:00,
2013-01-20 08:16:00,39.9,31.0,29.34,SSE,161,0.0,0.0,70,0.00,,,0.00,WXlink_for_OpenVMS,2013-01-20 13:16:00,
2013-01-20 08:21:00,39.9,31.0,29.34,SW,227,0.0,0.0,70,0.00,,,0.00,WXlink_for_OpenVMS,2013-01-20 13:21:00,
2013-01-20 08:31:00,40.5,31.0,29.34,WSW,240,0.0,0.0,68,0.00,,,0.00,WXlink_for_OpenVMS,2013-01-20 13:31:00,
2013-01-20 08:35:00,40.6,31.0,29.34,SSW,193,0.0,0.0,67,0.00,,,0.00,WXlink_for_OpenVMS,2013-01-20 13:35:00,
2013-01-20 08:41:00,41.0,31.0,29.34,WNW,293,0.0,3.6,66,0.00,,,0.00,WXlink_for_OpenVMS,2013-01-20 13:41:00,
2013-01-20 08:46:00,41.2,31.0,29.34,WSW,254,0.0,0.0,66,0.00,,,0.00,WXlink_for_OpenVMS,2013-01-20 13:46:00,
2013-01-20 08:51:00,41.4,30.0,29.34,SSW,193,0.0,2.2,65,0.00,,,0.00,WXlink_for_OpenVMS,2013-01-20 13:51:00,
2013-01-20 08:56:00,41.7,30.0,29.34,SSW,193,2.7,4.0,64,0.00,,,0.00,WXlink_for_OpenVMS,2013-01-20 13:56:00,
2013-01-20 09:06:00,42.4,31.0,29.34,South,191,4.0,0.0,63,0.00,,,0.00,WXlink_for_OpenVMS,2013-01-20 14:06:00,
2013-01-20 09:16:00,43.2,31.0,29.34,SE,142,4.5,4.5,61,0.00,,,0.00,WXlink_for_OpenVMS,2013-01-20 14:16:00,
2013-01-20 09:21:00,43.3,30.0,29.34,SSW,210,3.6,3.6,60,0.00,,,0.00,WXlink_for_OpenVMS,2013-01-20 14:21:00,
2013-01-20 09:26:00,43.5,30.0,29.34,SW,225,4.5,0.0,59,0.00,,,0.00,WXlink_for_OpenVMS,2013-01-20 14:26:00,
2013-01-20 09:31:00,43.7,30.0,29.34,SW,226,2.2,0.0,59,0.00,,,0.00,WXlink_for_OpenVMS,2013-01-20 14:31:00,
2013-01-20 09:36:00,44.1,30.0,29.34,SW,221,4.5,5.8,58,0.00,,,0.00,WXlink_for_OpenVMS,2013-01-20 14:36:00,
2013-01-20 09:41:00,44.6,30.0,29.34,SSE,147,3.6,3.6,57,0.00,,,0.00,WXlink_for_OpenVMS,2013-01-20 14:41:00,
2013-01-20 09:46:00,44.8,30.0,29.34,South,177,3.1,0.0,57,0.00,,,0.00,WXlink_for_OpenVMS,2013-01-20 14:46:00,
2013-01-20 09:51:00,45.0,30.0,29.34,SW,218,2.2,5.4,56,0.00,,,0.00,WXlink_for_OpenVMS,2013-01-20 14:51:00,
2013-01-20 10:01:00,45.5,30.0,29.34,SW,231,6.3,6.3,55,0.00,,,0.00,WXlink_for_OpenVMS,2013-01-20 15:01:00,
2013-01-20 10:10:00,45.9,30.0,29.34,SW,234,5.8,5.8,54,0.00,,,0.00,WXlink_for_OpenVMS,2013-01-20 15:10:00,
2013-01-20 10:15:00,46.0,30.0,29.34,SW,233,3.6,5.8,54,0.00,,,0.00,WXlink_for_OpenVMS,2013-01-20 15:15:00,
2013-01-20 10:21:00,46.2,30.0,29.34,SSW,209,4.0,4.0,54,0.00,,,0.00,WXlink_for_OpenVMS,2013-01-20 15:21:00,
2013-01-20 10:30:00,46.6,31.0,29.31,SW,230,3.6,3.6,54,0.00,,,0.00,WXlink_for_OpenVMS,2013-01-20 15:30:00,
2013-01-20 10:36:00,46.8,31.0,29.31,South,169,2.2,0.0,53,0.00,,,0.00,WXlink_for_OpenVMS,2013-01-20 15:36:00,
2013-01-20 10:41:00,47.1,31.0,29.31,SSW,207,4.5,5.8,53,0.00,,,0.00,WXlink_for_OpenVMS,2013-01-20 15:41:00,
2013-01-20 10:45:00,47.5,31.0,29.31,SW,221,3.6,0.0,53,0.00,,,0.00,WXlink_for_OpenVMS,2013-01-20 15:45:00,
2013-01-20 10:51:00,47.7,31.0,29.31,SW,231,5.4,6.3,52,0.00,,,0.00,WXlink_for_OpenVMS,2013-01-20 15:51:00,
2013-01-20 10:56:00,48.4,34.0,29.31,SW,227,4.5,5.8,52,0.00,,,0.00,WXlink_for_OpenVMS,2013-01-20 15:56:00,
2013-01-20 11:01:00,48.7,34.0,29.31,SW,226,5.4,6.3,50,0.00,,,0.00,WXlink_for_OpenVMS,2013-01-20 16:01:00,
2013-01-20 11:06:00,49.1,34.0,29.31,WSW,249,5.8,5.8,49,0.00,,,0.00,WXlink_for_OpenVMS,2013-01-20 16:06:00,
2013-01-20 11:15:00,49.6,34.0,29.28,SW,220,7.2,7.2,48,0.00,,,0.00,WXlink_for_OpenVMS,2013-01-20 16:15:00,
2013-01-20 11:21:00,50.0,34.0,29.28,SW,227,6.3,6.3,47,0.00,,,0.00,WXlink_for_OpenVMS,2013-01-20 16:21:00,
2013-01-20 11:25:00,50.2,36.0,29.28,SW,221,7.6,8.1,46,0.00,,,0.00,WXlink_for_OpenVMS,2013-01-20 16:25:00,
2013-01-20 11:30:00,50.4,36.0,29.28,SW,236,6.7,8.1,46,0.00,,,0.00,WXlink_for_OpenVMS,2013-01-20 16:30:00,
2013-01-20 11:35:00,50.5,34.0,29.28,WSW,246,6.3,7.6,45,0.00,,,0.00,WXlink_for_OpenVMS,2013-01-20 16:35:00,
2013-01-20 11:41:00,50.9,34.0,29.28,SSW,208,8.1,8.1,45,0.00,,,0.00,WXlink_for_OpenVMS,2013-01-20 16:41:00,
2013-01-20 11:46:00,50.9,34.0,29.28,WSW,244,5.4,8.1,45,0.00,,,0.00,WXlink_for_OpenVMS,2013-01-20 16:46:00,
2013-01-20 11:55:00,51.3,34.0,29.28,SW,219,6.3,6.3,45,0.00,,,0.00,WXlink_for_OpenVMS,2013-01-20 16:55:00,
2013-01-20 12:01:00,51.3,34.0,29.25,SW,215,6.3,6.3,45,0.00,,,0.00,WXlink_for_OpenVMS,2013-01-20 17:01:00,
2013-01-20 12:06:00,51.1,30.0,29.25,SSW,195,5.8,5.8,44,0.00,,,0.00,WXlink_for_OpenVMS,2013-01-20 17:06:00,
2013-01-20 12:10:00,51.1,30.0,29.25,SW,226,3.6,6.3,45,0.00,,,0.00,WXlink_for_OpenVMS,2013-01-20 17:10:00,
2013-01-20 12:15:00,51.1,30.0,29.28,WSW,241,6.3,6.3,45,0.00,,,0.00,WXlink_for_OpenVMS,2013-01-20 17:15:00,
2013-01-20 12:21:00,51.1,30.0,29.28,SW,231,10.1,10.1,45,0.00,,,0.00,WXlink_for_OpenVMS,2013-01-20 17:21:00,
2013-01-20 12:31:00,51.1,30.0,29.28,SW,233,5.4,6.3,45,0.00,,,0.00,WXlink_for_OpenVMS,2013-01-20 17:31:00,
2013-01-20 12:36:00,50.9,30.0,29.28,South,190,4.5,4.5,45,0.00,,,0.00,WXlink_for_OpenVMS,2013-01-20 17:36:00,
2013-01-20 12:41:00,50.7,30.0,29.28,SW,230,6.3,7.6,45,0.00,,,0.00,WXlink_for_OpenVMS,2013-01-20 17:41:00,
2013-01-20 12:45:00,50.4,30.0,29.28,South,176,4.0,6.3,45,0.00,,,0.00,WXlink_for_OpenVMS,2013-01-20 17:45:00,
2013-01-20 12:50:00,50.2,30.0,29.28,SW,225,4.9,4.9,45,0.00,,,0.00,WXlink_for_OpenVMS,2013-01-20 17:50:00,
2013-01-20 12:55:00,50.0,29.0,29.28,SW,233,6.3,8.1,45,0.00,,,0.00,WXlink_for_OpenVMS,2013-01-20 17:55:00,
2013-01-20 13:01:00,49.8,29.0,29.28,WSW,251,6.7,8.3,45,0.00,,,0.00,WXlink_for_OpenVMS,2013-01-20 18:01:00,
2013-01-20 13:06:00,49.6,29.0,29.28,WSW,241,7.2,7.2,45,0.00,,,0.00,WXlink_for_OpenVMS,2013-01-20 18:06:00,
2013-01-20 13:10:00,49.5,29.0,29.28,SW,234,6.3,6.3,45,0.00,,,0.00,WXlink_for_OpenVMS,2013-01-20 18:10:00,
2013-01-20 13:16:00,49.3,29.0,29.28,SW,222,5.8,5.8,46,0.00,,,0.00,WXlink_for_OpenVMS,2013-01-20 18:16:00,
2013-01-20 13:25:00,48.9,29.0,29.28,WNW,282,4.5,5.8,46,0.00,,,0.00,WXlink_for_OpenVMS,2013-01-20 18:25:00,
2013-01-20 13:31:00,48.7,29.0,29.31,WNW,299,8.3,8.7,46,0.00,,,0.00,WXlink_for_OpenVMS,2013-01-20 18:31:00,
2013-01-20 13:36:00,48.2,29.0,29.31,WNW,301,8.7,8.7,47,0.00,,,0.00,WXlink_for_OpenVMS,2013-01-20 18:36:00,
2013-01-20 13:41:00,47.5,28.0,29.31,WNW,297,5.4,7.6,47,0.00,,,0.00,WXlink_for_OpenVMS,2013-01-20 18:41:00,
2013-01-20 13:46:00,47.1,28.0,29.31,WNW,292,6.3,6.3,48,0.00,,,0.00,WXlink_for_OpenVMS,2013-01-20 18:46:00,
2013-01-20 13:55:00,46.4,28.0,29.31,NW,318,5.8,6.3,48,0.00,,,0.00,WXlink_for_OpenVMS,2013-01-20 18:55:00,
2013-01-20 14:00:00,46.2,28.0,29.34,West,281,4.9,6.3,49,0.00,,,0.00,WXlink_for_OpenVMS,2013-01-20 19:00:00,
2013-01-20 14:06:00,46.0,28.0,29.34,WNW,294,4.5,7.2,49,0.00,,,0.00,WXlink_for_OpenVMS,2013-01-20 19:06:00,
2013-01-20 14:16:00,45.5,28.0,29.34,WNW,287,5.4,5.8,50,0.00,,,0.00,WXlink_for_OpenVMS,2013-01-20 19:16:00,
2013-01-20 14:21:00,45.3,28.0,29.34,WNW,294,3.1,3.1,50,0.00,,,0.00,WXlink_for_OpenVMS,2013-01-20 19:21:00,
2013-01-20 14:26:00,45.3,28.0,29.34,West,261,4.5,4.9,50,0.00,,,0.00,WXlink_for_OpenVMS,2013-01-20 19:26:00,
2013-01-20 14:31:00,45.3,28.0,29.34,WSW,256,2.2,4.9,50,0.00,,,0.00,WXlink_for_OpenVMS,2013-01-20 19:31:00,
2013-01-20 14:40:00,45.3,27.0,29.34,West,259,4.5,5.4,49,0.00,,,0.00,WXlink_for_OpenVMS,2013-01-20 19:40:00,
2013-01-20 14:46:00,45.5,27.0,29.37,West,265,5.4,5.4,49,0.00,,,0.00,WXlink_for_OpenVMS,2013-01-20 19:46:00,
2013-01-20 14:50:00,45.5,27.0,29.37,WSW,248,4.5,4.5,49,0.00,,,0.00,WXlink_for_OpenVMS,2013-01-20 19:50:00,
2013-01-20 14:56:00,45.5,27.0,29.37,WNW,295,4.9,4.9,49,0.00,,,0.00,WXlink_for_OpenVMS,2013-01-20 19:56:00,
2013-01-20 15:01:00,45.9,27.0,29.37,WSW,253,4.9,4.9,48,0.00,,,0.00,WXlink_for_OpenVMS,2013-01-20 20:01:00,
2013-01-20 15:06:00,46.4,28.0,29.37,West,270,3.6,4.0,48,0.00,,,0.00,WXlink_for_OpenVMS,2013-01-20 20:06:00,
2013-01-20 15:10:00,46.6,28.0,29.37,NW,306,3.1,3.6,48,0.00,,,0.00,WXlink_for_OpenVMS,2013-01-20 20:10:00,
2013-01-20 15:15:00,46.6,27.0,29.37,West,263,3.1,3.6,47,0.00,,,0.00,WXlink_for_OpenVMS,2013-01-20 20:15:00,
2013-01-20 15:21:00,46.6,27.0,29.37,SW,226,4.5,5.8,47,0.00,,,0.00,WXlink_for_OpenVMS,2013-01-20 20:21:00,
2013-01-20 15:31:00,46.6,27.0,29.37,WNW,293,4.5,4.5,46,0.00,,,0.00,WXlink_for_OpenVMS,2013-01-20 20:31:00,
2013-01-20 15:36:00,46.4,27.0,29.37,WSW,245,3.6,3.6,46,0.00,,,0.00,WXlink_for_OpenVMS,2013-01-20 20:36:00,
2013-01-20 15:41:00,46.2,27.0,29.37,WNW,282,2.2,2.7,46,0.00,,,0.00,WXlink_for_OpenVMS,2013-01-20 20:41:00,
2013-01-20 15:46:00,46.0,26.0,29.37,WNW,283,3.1,3.6,46,0.00,,,0.00,WXlink_for_OpenVMS,2013-01-20 20:46:00,
2013-01-20 15:51:00,45.7,26.0,29.37,WNW,296,6.7,6.7,46,0.00,,,0.00,WXlink_for_OpenVMS,2013-01-20 20:51:00,
2013-01-20 15:56:00,45.5,26.0,29.37,West,263,0.0,3.6,46,0.00,,,0.00,WXlink_for_OpenVMS,2013-01-20 20:56:00,
2013-01-20 16:01:00,45.1,26.0,29.37,WNW,292,3.1,4.9,46,0.00,,,0.00,WXlink_for_OpenVMS,2013-01-20 21:01:00,
2013-01-20 16:06:00,45.1,25.0,29.37,SW,229,4.0,5.4,45,0.00,,,0.00,WXlink_for_OpenVMS,2013-01-20 21:06:00,
2013-01-20 16:15:00,44.6,24.0,29.40,West,272,4.9,4.9,44,0.00,,,0.00,WXlink_for_OpenVMS,2013-01-20 21:15:00,
2013-01-20 16:21:00,44.6,24.0,29.40,West,265,4.0,5.4,44,0.00,,,0.00,WXlink_for_OpenVMS,2013-01-20 21:21:00,
2013-01-20 16:26:00,44.2,23.0,29.40,WSW,238,6.3,6.3,42,0.00,,,0.00,WXlink_for_OpenVMS,2013-01-20 21:26:00,
2013-01-20 16:30:00,43.9,22.0,29.40,WNW,293,6.3,6.3,42,0.00,,,0.00,WXlink_for_OpenVMS,2013-01-20 21:30:00,
2013-01-20 16:35:00,43.7,22.0,29.40,West,276,4.9,5.8,41,0.00,,,0.00,WXlink_for_OpenVMS,2013-01-20 21:35:00,
2013-01-20 16:40:00,43.3,21.0,29.40,NNW,336,5.8,8.7,41,0.00,,,0.00,WXlink_for_OpenVMS,2013-01-20 21:40:00,
2013-01-20 16:45:00,43.0,21.0,29.43,WNW,289,8.1,8.1,41,0.00,,,0.00,WXlink_for_OpenVMS,2013-01-20 21:45:00,
2013-01-20 16:50:00,42.6,21.0,29.43,West,273,4.9,4.9,41,0.00,,,0.00,WXlink_for_OpenVMS,2013-01-20 21:50:00,
2013-01-20 16:56:00,42.3,20.0,29.43,NW,304,4.0,4.0,41,0.00,,,0.00,WXlink_for_OpenVMS,2013-01-20 21:56:00,
2013-01-20 17:01:00,41.9,20.0,29.46,SW,223,5.4,5.4,41,0.00,,,0.00,WXlink_for_OpenVMS,2013-01-20 22:01:00,
2013-01-20 17:10:00,41.2,19.0,29.46,West,279,4.5,4.5,41,0.00,,,0.00,WXlink_for_OpenVMS,2013-01-20 22:10:00,
2013-01-20 17:15:00,40.8,19.0,29.46,West,272,3.6,4.0,42,0.00,,,0.00,WXlink_for_OpenVMS,2013-01-20 22:15:00,
2013-01-20 17:20:00,40.5,19.0,29.46,WNW,288,5.4,5.4,42,0.00,,,0.00,WXlink_for_OpenVMS,2013-01-20 22:20:00,
2013-01-20 17:25:00,40.1,19.0,29.46,WNW,303,4.5,5.8,42,0.00,,,0.00,WXlink_for_OpenVMS,2013-01-20 22:25:00,
2013-01-20 17:31:00,39.6,18.0,29.49,WNW,291,4.9,5.4,42,0.00,,,0.00,WXlink_for_OpenVMS,2013-01-20 22:31:00,
2013-01-20 17:40:00,38.7,18.0,29.49,West,270,5.4,5.4,42,0.00,,,0.00,WXlink_for_OpenVMS,2013-01-20 22:40:00,
2013-01-20 17:45:00,38.3,18.0,29.49,WNW,290,6.3,6.3,43,0.00,,,0.00,WXlink_for_OpenVMS,2013-01-20 22:45:00,
2013-01-20 17:50:00,37.9,17.0,29.49,WNW,287,4.9,4.9,43,0.00,,,0.00,WXlink_for_OpenVMS,2013-01-20 22:50:00,
2013-01-20 17:55:00,37.6,17.0,29.49,West,275,6.3,6.3,43,0.00,,,0.00,WXlink_for_OpenVMS,2013-01-20 22:55:00,
2013-01-20 18:01:00,37.2,17.0,29.49,WSW,253,4.9,4.9,43,0.00,,,0.00,WXlink_for_OpenVMS,2013-01-20 23:01:00,
2013-01-20 18:06:00,37.0,17.0,29.49,West,274,4.5,4.5,43,0.00,,,0.00,WXlink_for_OpenVMS,2013-01-20 23:06:00,
2013-01-20 18:16:00,36.7,16.0,29.52,WNW,283,3.6,4.0,43,0.00,,,0.00,WXlink_for_OpenVMS,2013-01-20 23:16:00,
2013-01-20 18:21:00,36.5,16.0,29.52,West,265,4.5,4.5,43,0.00,,,0.00,WXlink_for_OpenVMS,2013-01-20 23:21:00,
2013-01-20 18:25:00,36.3,16.0,29.52,West,281,3.1,3.6,43,0.00,,,0.00,WXlink_for_OpenVMS,2013-01-20 23:25:00,
2013-01-20 18:30:00,36.1,16.0,29.52,South,184,4.5,7.2,44,0.00,,,0.00,WXlink_for_OpenVMS,2013-01-20 23:30:00,
2013-01-20 18:36:00,36.1,16.0,29.52,NW,311,4.0,4.0,43,0.00,,,0.00,WXlink_for_OpenVMS,2013-01-20 23:36:00,
2013-01-20 18:45:00,35.6,15.0,29.52,SW,221,4.9,4.9,43,0.00,,,0.00,WXlink_for_OpenVMS,2013-01-20 23:45:00,
2013-01-20 18:50:00,35.6,15.0,29.52,SW,229,4.9,6.3,43,0.00,,,0.00,WXlink_for_OpenVMS,2013-01-20 23:50:00,
2013-01-20 18:56:00,35.4,15.0,29.52,West,264,5.8,5.8,43,0.00,,,0.00,WXlink_for_OpenVMS,2013-01-20 23:56:00,
2013-01-20 19:00:00,35.2,15.0,29.55,WNW,300,3.1,4.0,43,0.00,,,0.00,WXlink_for_OpenVMS,2013-01-21 00:00:00,
2013-01-20 19:06:00,35.1,15.0,29.55,NW,306,4.0,5.8,43,0.00,,,0.00,WXlink_for_OpenVMS,2013-01-21 00:06:00,
2013-01-20 19:10:00,34.9,15.0,29.55,WNW,303,4.0,4.0,43,0.00,,,0.00,WXlink_for_OpenVMS,2013-01-21 00:10:00,
2013-01-20 19:16:00,34.9,15.0,29.55,SW,236,3.1,3.1,44,0.00,,,0.00,WXlink_for_OpenVMS,2013-01-21 00:16:00,
2013-01-20 19:20:00,34.5,15.0,29.55,West,269,3.1,3.6,44,0.00,,,0.00,WXlink_for_OpenVMS,2013-01-21 00:20:00,
2013-01-20 19:25:00,34.5,14.0,29.55,WNW,283,5.8,5.8,43,0.00,,,0.00,WXlink_for_OpenVMS,2013-01-21 00:25:00,
2013-01-20 19:30:00,34.0,14.0,29.55,NW,309,5.4,5.8,43,0.00,,,0.00,WXlink_for_OpenVMS,2013-01-21 00:30:00,
2013-01-20 19:36:00,34.0,14.0,29.55,West,273,4.0,4.0,43,0.00,,,0.00,WXlink_for_OpenVMS,2013-01-21 00:36:00,
2013-01-20 19:41:00,33.8,14.0,29.55,WNW,290,4.5,6.3,43,0.00,,,0.00,WXlink_for_OpenVMS,2013-01-21 00:41:00,
2013-01-20 19:50:00,33.4,13.0,29.55,WNW,300,4.0,5.4,43,0.00,,,0.00,WXlink_for_OpenVMS,2013-01-21 00:50:00,
2013-01-20 19:55:00,33.3,13.0,29.55,West,280,8.3,8.7,43,0.00,,,0.00,WXlink_for_OpenVMS,2013-01-21 00:55:00,
2013-01-20 20:01:00,33.1,13.0,29.58,West,266,6.7,6.7,43,0.00,,,0.00,WXlink_for_OpenVMS,2013-01-21 01:01:00,
2013-01-20 20:06:00,33.1,13.0,29.58,SW,228,4.9,7.6,43,0.00,,,0.00,WXlink_for_OpenVMS,2013-01-21 01:06:00,
2013-01-20 20:10:00,33.1,13.0,29.58,WNW,287,3.1,3.6,43,0.00,,,0.00,WXlink_for_OpenVMS,2013-01-21 01:10:00,
2013-01-20 20:15:00,32.9,13.0,29.58,West,275,4.5,4.9,43,0.00,,,0.00,WXlink_for_OpenVMS,2013-01-21 01:15:00,
2013-01-20 20:21:00,32.7,13.0,29.58,WSW,256,6.3,6.3,43,0.00,,,0.00,WXlink_for_OpenVMS,2013-01-21 01:21:00,
2013-01-20 20:31:00,32.5,13.0,29.58,WNW,298,3.6,3.6,43,0.00,,,0.00,WXlink_for_OpenVMS,2013-01-21 01:31:00,
2013-01-20 20:36:00,32.4,12.0,29.58,WSW,253,4.5,4.5,43,0.00,,,0.00,WXlink_for_OpenVMS,2013-01-21 01:36:00,
2013-01-20 20:41:00,32.2,12.0,29.58,West,281,4.5,4.5,43,0.00,,,0.00,WXlink_for_OpenVMS,2013-01-21 01:41:00,
2013-01-20 20:46:00,32.0,12.0,29.60,West,264,4.9,5.8,43,0.00,,,0.00,WXlink_for_OpenVMS,2013-01-21 01:46:00,
2013-01-20 20:56:00,31.8,12.0,29.60,SSW,204,4.9,4.9,43,0.00,,,0.00,WXlink_for_OpenVMS,2013-01-21 01:56:00,
2013-01-20 21:05:00,31.8,12.0,29.60,SW,226,5.4,8.3,43,0.00,,,0.00,WXlink_for_OpenVMS,2013-01-21 02:05:00,
2013-01-20 21:10:00,31.6,12.0,29.60,WNW,291,4.0,6.3,43,0.00,,,0.00,WXlink_for_OpenVMS,2013-01-21 02:10:00,
2013-01-20 21:15:00,31.6,12.0,29.60,West,275,3.1,4.0,43,0.00,,,0.00,WXlink_for_OpenVMS,2013-01-21 02:15:00,
2013-01-20 21:21:00,31.6,12.0,29.60,WSW,237,4.9,5.4,43,0.00,,,0.00,WXlink_for_OpenVMS,2013-01-21 02:21:00,
2013-01-20 21:26:00,31.6,12.0,29.60,WSW,239,3.6,0.0,43,0.00,,,0.00,WXlink_for_OpenVMS,2013-01-21 02:26:00,
2013-01-20 21:31:00,31.5,12.0,29.60,SW,231,4.5,4.5,43,0.00,,,0.00,WXlink_for_OpenVMS,2013-01-21 02:31:00,
2013-01-20 21:40:00,31.5,12.0,29.60,West,261,4.5,4.5,43,0.00,,,0.00,WXlink_for_OpenVMS,2013-01-21 02:40:00,
2013-01-20 21:45:00,31.5,12.0,29.60,NNW,338,4.5,6.3,43,0.00,,,0.00,WXlink_for_OpenVMS,2013-01-21 02:45:00,
2013-01-20 21:51:00,31.3,11.0,29.60,WSW,257,4.0,4.0,43,0.00,,,0.00,WXlink_for_OpenVMS,2013-01-21 02:51:00,
2013-01-20 21:56:00,31.1,11.0,29.60,West,278,3.6,7.6,43,0.00,,,0.00,WXlink_for_OpenVMS,2013-01-21 02:56:00,
2013-01-20 22:01:00,31.1,11.0,29.63,West,261,3.1,4.0,43,0.00,,,0.00,WXlink_for_OpenVMS,2013-01-21 03:01:00,
2013-01-20 22:06:00,31.1,11.0,29.63,SSW,208,4.0,4.0,43,0.00,,,0.00,WXlink_for_OpenVMS,2013-01-21 03:06:00,
2013-01-20 22:16:00,31.1,11.0,29.63,WSW,249,3.1,3.1,43,0.00,,,0.00,WXlink_for_OpenVMS,2013-01-21 03:16:00,
2013-01-20 22:21:00,31.1,11.0,29.63,WSW,242,3.1,3.1,43,0.00,,,0.00,WXlink_for_OpenVMS,2013-01-21 03:21:00,
2013-01-20 22:30:00,31.1,11.0,29.63,West,277,3.6,4.9,43,0.00,,,0.00,WXlink_for_OpenVMS,2013-01-21 03:30:00,
2013-01-20 22:36:00,31.1,11.0,29.63,West,277,6.3,6.3,43,0.00,,,0.00,WXlink_for_OpenVMS,2013-01-21 03:36:00,
2013-01-20 22:40:00,30.9,11.0,29.63,WSW,254,3.6,4.9,43,0.00,,,0.00,WXlink_for_OpenVMS,2013-01-21 03:40:00,
2013-01-20 22:46:00,30.9,11.0,29.63,SW,219,3.6,3.6,43,0.00,,,0.00,WXlink_for_OpenVMS,2013-01-21 03:46:00,
2013-01-20 22:51:00,30.7,11.0,29.63,NW,311,5.4,5.4,43,0.00,,,0.00,WXlink_for_OpenVMS,2013-01-21 03:51:00,
2013-01-20 22:56:00,30.7,11.0,29.63,West,280,2.7,4.0,43,0.00,,,0.00,WXlink_for_OpenVMS,2013-01-21 03:56:00,
2013-01-20 23:06:00,30.4,11.0,29.63,NW,305,6.3,8.3,43,0.00,,,0.00,WXlink_for_OpenVMS,2013-01-21 04:06:00,
2013-01-20 23:10:00,30.4,11.0,29.63,WSW,237,3.6,3.6,43,0.00,,,0.00,WXlink_for_OpenVMS,2013-01-21 04:10:00,
2013-01-20 23:15:00,30.4,11.0,29.63,WSW,238,3.1,4.5,43,0.00,,,0.00,WXlink_for_OpenVMS,2013-01-21 04:15:00,
2013-01-20 23:20:00,30.2,10.0,29.63,WSW,253,2.7,4.9,43,0.00,,,0.00,WXlink_for_OpenVMS,2013-01-21 04:20:00,
2013-01-20 23:26:00,30.2,10.0,29.63,SW,233,3.6,3.6,43,0.00,,,0.00,WXlink_for_OpenVMS,2013-01-21 04:26:00,
2013-01-20 23:35:00,30.2,10.0,29.63,WNW,289,3.6,3.6,43,0.00,,,0.00,WXlink_for_OpenVMS,2013-01-21 04:35:00,
2013-01-20 23:41:00,30.2,10.0,29.63,WNW,286,3.6,3.6,43,0.00,,,0.00,WXlink_for_OpenVMS,2013-01-21 04:41:00,
2013-01-20 23:46:00,30.0,10.0,29.63,West,273,0.0,3.1,43,0.00,,,0.00,WXlink_for_OpenVMS,2013-01-21 04:46:00,
2013-01-20 23:50:00,29.8,10.0,29.63,West,270,2.7,3.1,43,0.00,,,0.00,WXlink_for_OpenVMS,2013-01-21 04:50:00,
2013-01-20 23:55:00,29.8,11.0,29.63,West,260,0.0,0.0,44,0.00,,,0.00,WXlink_for_OpenVMS,2013-01-21 04:55:00,